Meath Environmental Platform

Observations for Trim Market St

Time AQI Temp °C Hum % Pres Pa CO μg/m³ H₂S μg/m³ NO μg/m³ NO₂ μg/m³ O₃ μg/m³ SO₂ μg/m³ PM1 μg/m³ PM2.5 μg/m³ PM10 μg/m³
Wednesday 15 July 2026
15:38 1 36.8 31 66,602 0 0 0 6.15 36.14 0.61 5.7 9.24 11.82
15:37 1 36.8 31 66,596 0 0 0 0.87 29.21 0.96 7.13 11.42 14.41
15:36 1 36.7 30 66,600 0 0 0 2.21 36.02 0.87 6.41 9.8 11.83
15:35 1 36.7 30 66,576 0 0 0 0.91 25.02 0.39 5.7 10.34 12.69
15:34 1 36.7 31 66,572 0 0 0 2.2 23.06 0.26 4.99 9.79 12.69
15:33 1 36.6 31 66,566 0 0 0 0 25.48 0.98 5.7 9.77 11.82
15:32 1 36.6 31 66,588 0 0 0 2.08 35.31 0.75 7.13 11.39 15.25
15:29 1 36.4 31 66,558 0 0 0 0 23.53 0.75 7.13 14.08 19.52
15:27 1 36.3 32 66,550 0 0 0 7.18 26.73 0 4.99 10.26 12.65
15:22 1 36.2 31 66,550 0 0 0 3.87 31.96 0.81 5.7 10.3 13.53
15:20 1 36.2 31 66,543 0 0 0 0.67 28.4 0.82 7.13 11.38 18.68
15:15 1 36.2 31 66,552 0 0 0 0 29.34 1.06 6.41 10.31 13.53
15:14 1 36.2 31 66,550 0 0 0 0.46 32.41 1.15 6.41 10.84 13.53
15:13 1 36.2 31 66,548 0 0 0 1.67 28.25 0.67 5.7 10.3 12.67
15:12 1 36.2 31 66,570 0 0 0 8.36 21.02 0 6.41 10.29 12.67
15:11 1 36.2 31 66,572 0 0 0 5.56 28.5 0.66 6.41 11.38 15.24
15:10 1 36.3 31 66,574 0 2.52 0 3.95 40.2 1.48 6.41 9.76 11.81
15:09 1 36.2 31 66,580 0 0 0 3.3 38.56 1.21 5.7 9.23 10.96
15:08 1 36.3 31 66,556 0 0 0 0.69 34.91 1.17 8.55 11.41 15.27
15:06 1 36.3 31 66,556 0 0 0 0.98 41.03 1.09 5.7 10.32 14.4